EN

Hourly Weather Kyzylsengir

Today, 26 October, Monday

Time Temperature Precipitation Wind Pressure Humidity
00:00 +9°C° 0 mm 2 mps 714 mmHg 37%
01:00 +9°C° 0 mm 2 mps 714 mmHg 36%
02:00 +9°C° 0 mm 2 mps 713 mmHg 35%
03:00 +9°C° 0 mm 2 mps 713 mmHg 35%
04:00 +9°C° 0 mm 2 mps 713 mmHg 35%
05:00 +9°C° 0 mm 2 mps 713 mmHg 35%
06:00 +10°C° 0 mm 2 mps 713 mmHg 33%
07:00 +12°C° 0 mm 2 mps 713 mmHg 31%
08:00 +12°C° 0 mm 2 mps 713 mmHg 29%
09:00 +15°C° 0 mm 1 mps 713 mmHg 26%
10:00 +18°C° 0 mm 1 mps 713 mmHg 22%
11:00 +21°C° 0 mm 1 mps 713 mmHg 18%
12:00 +21°C° 0 mm 1 mps 713 mmHg 17%
13:00 +21°C° 0 mm 2 mps 713 mmHg 16%
14:00 +21°C° 0 mm 2 mps 712 mmHg 15%
15:00 +20°C° 0 mm 2 mps 712 mmHg 17%
16:00 +20°C° 0 mm 1 mps 712 mmHg 19%
17:00 +18°C° 0 mm 1 mps 711 mmHg 21%
18:00 +16°C° 0 mm 1 mps 711 mmHg 23%
19:00 +15°C° 0 mm 1 mps 711 mmHg 25%
20:00 +13°C° 0 mm 1 mps 711 mmHg 27%
21:00 +13°C° 0 mm 1 mps 711 mmHg 27%
22:00 +13°C° 0 mm 2 mps 711 mmHg 26%
23:00 +13°C° 0 mm 2 mps 710 mmHg 25%

Tomorrow, 27 October, Tuesday

Time Temperature Precipitation Wind Pressure Humidity
00:00 +13°C° 0 mm 2 mps 710 mmHg 25%
01:00 +13°C° 0 mm 2 mps 710 mmHg 24%
02:00 +13°C° 0 mm 2 mps 710 mmHg 24%
03:00 +13°C° 0 mm 2 mps 709 mmHg 23%
04:00 +13°C° 0 mm 2 mps 709 mmHg 23%
05:00 +13°C° 0 mm 2 mps 709 mmHg 23%
06:00 +14°C° 0 mm 2 mps 709 mmHg 21%
07:00 +14°C° 0 mm 1 mps 709 mmHg 20%
08:00 +15°C° 0 mm 1 mps 709 mmHg 19%
09:00 +18°C° 0 mm 1 mps 709 mmHg 18%
10:00 +19°C° 0 mm 2 mps 709 mmHg 16%
11:00 +21°C° 0 mm 2 mps 709 mmHg 15%
12:00 +21°C° 0 mm 2 mps 708 mmHg 15%
13:00 +22°C° 0 mm 3 mps 708 mmHg 14%
14:00 +22°C° 0 mm 3 mps 708 mmHg 14%
15:00 +20°C° 0 mm 3 mps 708 mmHg 17%
16:00 +19°C° 0 mm 2 mps 708 mmHg 19%
17:00 +17°C° 0 mm 2 mps 708 mmHg 22%
18:00 +16°C° 0 mm 2 mps 708 mmHg 24%
19:00 +15°C° 0 mm 1 mps 708 mmHg 26%
20:00 +14°C° 0 mm 1 mps 708 mmHg 28%
21:00 +13°C° 0 mm 1 mps 709 mmHg 29%
22:00 +13°C° 0 mm 1 mps 709 mmHg 31%
23:00 +12°C° 0 mm 1 mps 709 mmHg 33%

Day after tomorrow, 28 October, Wednesday

Time Temperature Precipitation Wind Pressure Humidity
00:00 +12°C° 0 mm 1 mps 709 mmHg 34%
01:00 +11°C° 0 mm 1 mps 709 mmHg 36%
02:00 +11°C° 0 mm 1 mps 709 mmHg 38%
03:00 +10°C° 0 mm 1 mps 709 mmHg 40%
04:00 +9°C° 0 mm 1 mps 709 mmHg 43%
05:00 +9°C° 0 mm 1 mps 710 mmHg 45%
06:00 +8°C° 0 mm 2 mps 710 mmHg 44%
07:00 +8°C° 0 mm 2 mps 711 mmHg 42%
08:00 +9°C° 0 mm 2 mps 712 mmHg 41%
09:00 +9°C° 0 mm 2 mps 712 mmHg 39%
10:00 +10°C° 0 mm 2 mps 712 mmHg 38%
11:00 +12°C° 0 mm 2 mps 713 mmHg 36%
12:00 +11°C° 0 mm 3 mps 713 mmHg 34%
13:00 +12°C° 0 mm 3 mps 713 mmHg 32%
14:00 +13°C° 0 mm 4 mps 713 mmHg 31%
15:00 +11°C° 0 mm 3 mps 714 mmHg 30%
16:00 +10°C° 0 mm 3 mps 714 mmHg 29%
17:00 +8°C° 0 mm 3 mps 714 mmHg 28%
18:00 +7°C° 0 mm 3 mps 714 mmHg 31%
19:00 +5°C° 0 mm 2 mps 715 mmHg 35%
20:00 +3°C° 0 mm 2 mps 715 mmHg 38%
21:00 +3°C° 0 mm 2 mps 715 mmHg 40%
22:00 +3°C° 0 mm 2 mps 715 mmHg 42%
23:00 +2°C° 0 mm 2 mps 715 mmHg 43%

29 October, Thursday

Time Temperature Precipitation Wind Pressure Humidity
00:00 +2°C° 0 mm 2 mps 715 mmHg 44%
01:00 +2°C° 0 mm 2 mps 715 mmHg 45%
02:00 +2°C° 0 mm 1 mps 715 mmHg 46%
03:00 +2°C° 0 mm 1 mps 715 mmHg 47%
04:00 +2°C° 0 mm 1 mps 715 mmHg 48%
05:00 +1°C° 0 mm 2 mps 715 mmHg 49%
06:00 +2°C° 0 mm 1 mps 716 mmHg 47%
07:00 +3°C° 0 mm 1 mps 716 mmHg 46%
08:00 +3°C° 0 mm 1 mps 717 mmHg 44%
09:00 +4°C° 0 mm 2 mps 717 mmHg 41%
10:00 +5°C° 0 mm 2 mps 717 mmHg 38%
11:00 +7°C° 0 mm 3 mps 717 mmHg 34%
12:00 +7°C° 0 mm 3 mps 717 mmHg 34%
13:00 +8°C° 0 mm 3 mps 717 mmHg 33%
14:00 +7°C° 0 mm 4 mps 717 mmHg 32%
15:00 +6°C° 0 mm 4 mps 718 mmHg 35%
16:00 +5°C° 0 mm 4 mps 718 mmHg 37%
17:00 +3°C° 0 mm 4 mps 718 mmHg 40%
18:00 +2°C° 0 mm 3 mps 718 mmHg 44%
19:00 0°C° 0 mm 3 mps 719 mmHg 48%
20:00 -1°C° 0 mm 2 mps 719 mmHg 52%
21:00 -1°C° 0 mm 2 mps 719 mmHg 54%
22:00 -2°C° 0 mm 2 mps 719 mmHg 57%
23:00 0°C° 0 mm 1 mps 719 mmHg 59%

30 October, Friday

Time Temperature Precipitation Wind Pressure Humidity
00:00 0°C° 0 mm 1 mps 720 mmHg 60%
01:00 0°C° 0 mm 1 mps 720 mmHg 61%
02:00 0°C° 0 mm 1 mps 720 mmHg 62%
03:00 0°C° 0 mm 1 mps 720 mmHg 62%
04:00 -1°C° 0 mm 1 mps 720 mmHg 62%
05:00 -1°C° 0 mm 1 mps 720 mmHg 62%
06:00 0°C° 0 mm 1 mps 720 mmHg 56%
07:00 +1°C° 0 mm 1 mps 721 mmHg 51%
08:00 +2°C° 0 mm 1 mps 721 mmHg 45%
09:00 +4°C° 0 mm 1 mps 721 mmHg 38%
10:00 +6°C° 0 mm 2 mps 721 mmHg 32%
11:00 +8°C° 0 mm 2 mps 721 mmHg 25%
12:00 +9°C° 0 mm 2 mps 721 mmHg 22%
13:00 +10°C° 0 mm 3 mps 721 mmHg 20%
14:00 +11°C° 0 mm 3 mps 720 mmHg 17%
15:00 +10°C° 0 mm 3 mps 720 mmHg 19%
16:00 +8°C° 0 mm 3 mps 720 mmHg 22%
17:00 +7°C° 0 mm 3 mps 719 mmHg 24%
18:00 +6°C° 0 mm 2 mps 719 mmHg 27%
19:00 +4°C° 0 mm 2 mps 719 mmHg 30%
20:00 +3°C° 0 mm 2 mps 719 mmHg 32%
21:00 +3°C° 0 mm 2 mps 718 mmHg 30%
22:00 +4°C° 0 mm 1 mps 718 mmHg 28%
23:00 +4°C° 0 mm 1 mps 718 mmHg 26%

31 October, Saturday

Time Temperature Precipitation Wind Pressure Humidity
00:00 +4°C° 0 mm 1 mps 718 mmHg 25%
01:00 +4°C° 0 mm 1 mps 717 mmHg 23%
02:00 +4°C° 0 mm 1 mps 717 mmHg 22%
03:00 +4°C° 0 mm 1 mps 717 mmHg 21%
04:00 +4°C° 0 mm 1 mps 716 mmHg 21%
05:00 +4°C° 0 mm 1 mps 716 mmHg 20%
06:00 +4°C° 0 mm 1 mps 716 mmHg 19%
07:00 +5°C° 0 mm 1 mps 716 mmHg 18%
08:00 +6°C° 0 mm 1 mps 717 mmHg 17%
09:00 +8°C° 0 mm 1 mps 717 mmHg 16%
10:00 +10°C° 0 mm 2 mps 717 mmHg 14%
11:00 +13°C° 0 mm 2 mps 717 mmHg 12%
Show more

We Need Your Consent

Meteoprog and our Service Providers may store and access personal data such as cookies, device identifiers or other similar technologies on your device and process such data to personalise content and ads, as well as provide social media features and to analyse the traffic.

  • Store and/or access information on your device

    Cookies, device identifiers or other information can be stored or accessed on your device for the purposes indicated above.

  • Personalised ads and content, ad and content measurement, audience insights, and products development

    Ads and content can be personalised based on a profile. More data can be added to better personalise ads and content. Ad and content performance can be measured. Insights about the audience who saw the ads and content can be derived. Such data can be used to develop or improve user’s experience, systems and software.

By clicking ‘I Agree’ you will allow the use of indicated cookies, device identifiers, web beacons or other similar technologies. Your settings can be changed in the browser on your device.

For certain purposes, legitimate interests may be relied on, rather than consent. You can read more about this in our Privacy and Cookie Policy.